Time,TemperatureF,DewpointF,PressureIn,WindDirection,WindDirectionDegrees,WindSpeedMPH,WindSpeedGustMPH,Humidity,HourlyPrecipIn,Conditions,Clouds,dailyrainin,SoftwareType,DateUTC
2013-05-13 00:01:00,67.0,63.7,30.11,East,96,0.0,0.0,89,0.00,,---,0.00,VWS V14.00,2013-05-13 05:01:00,
2013-05-13 00:06:00,66.8,63.5,30.11,East,96,0.0,0.0,89,0.00,,---,0.00,VWS V14.00,2013-05-13 05:06:00,
2013-05-13 00:11:00,66.8,63.5,30.11,East,96,0.0,0.0,89,0.00,,---,0.00,VWS V14.00,2013-05-13 05:11:00,
2013-05-13 00:16:00,66.7,63.4,30.11,East,96,0.0,0.0,89,0.00,,---,0.00,VWS V14.00,2013-05-13 05:16:00,
2013-05-13 00:21:00,66.5,63.2,30.11,East,96,0.0,0.0,89,0.00,,---,0.00,VWS V14.00,2013-05-13 05:21:00,
2013-05-13 00:26:00,66.4,63.1,30.11,East,96,0.0,0.0,89,0.00,,---,0.00,VWS V14.00,2013-05-13 05:26:00,
2013-05-13 00:31:00,66.3,63.0,30.11,East,96,0.0,0.0,89,0.00,,---,0.00,VWS V14.00,2013-05-13 05:31:00,
2013-05-13 00:36:00,66.3,63.0,30.11,East,96,0.0,0.0,89,0.00,,---,0.00,VWS V14.00,2013-05-13 05:36:00,
2013-05-13 00:41:00,66.2,63.2,30.11,East,96,0.0,0.0,90,0.00,,---,0.00,VWS V14.00,2013-05-13 05:41:00,
2013-05-13 00:46:00,66.2,63.2,30.11,East,96,0.0,0.0,90,0.00,,---,0.00,VWS V14.00,2013-05-13 05:46:00,
2013-05-13 00:51:00,66.2,63.2,30.11,East,96,0.0,0.0,90,0.00,,---,0.00,VWS V14.00,2013-05-13 05:51:00,
2013-05-13 00:56:00,66.1,63.1,30.11,East,96,0.0,0.0,90,0.00,,---,0.00,VWS V14.00,2013-05-13 05:56:00,
2013-05-13 01:01:00,66.1,63.1,30.11,East,96,0.0,0.0,90,0.00,,---,0.00,VWS V14.00,2013-05-13 06:01:00,
2013-05-13 01:06:00,66.0,63.0,30.11,East,96,0.0,0.0,90,0.00,,---,0.00,VWS V14.00,2013-05-13 06:06:00,
2013-05-13 01:11:00,66.0,63.0,30.11,East,96,0.0,0.0,90,0.00,,---,0.00,VWS V14.00,2013-05-13 06:11:00,
2013-05-13 01:16:00,66.0,63.0,30.11,East,96,0.0,0.0,90,0.00,,---,0.00,VWS V14.00,2013-05-13 06:16:00,
2013-05-13 01:21:00,65.9,62.9,30.10,East,96,0.0,0.0,90,0.00,,---,0.00,VWS V14.00,2013-05-13 06:21:00,
2013-05-13 01:26:00,65.9,62.9,30.10,East,96,0.0,0.0,90,0.00,,---,0.00,VWS V14.00,2013-05-13 06:26:00,
2013-05-13 01:31:00,65.9,62.9,30.10,East,96,0.0,0.0,90,0.00,,---,0.00,VWS V14.00,2013-05-13 06:31:00,
2013-05-13 01:36:00,65.9,62.9,30.10,East,96,0.0,0.0,90,0.00,,---,0.00,VWS V14.00,2013-05-13 06:36:00,
2013-05-13 01:41:00,65.9,62.9,30.10,East,96,0.0,0.0,90,0.00,,---,0.00,VWS V14.00,2013-05-13 06:41:00,
2013-05-13 01:46:00,65.8,62.8,30.10,East,96,0.0,0.0,90,0.00,,---,0.00,VWS V14.00,2013-05-13 06:46:00,
2013-05-13 01:51:00,65.8,62.8,30.10,East,96,0.0,0.0,90,0.00,,---,0.00,VWS V14.00,2013-05-13 06:51:00,
2013-05-13 01:56:00,65.7,62.7,30.10,East,96,0.0,0.0,90,0.00,,---,0.00,VWS V14.00,2013-05-13 06:56:00,
2013-05-13 02:01:00,65.6,62.6,30.10,East,96,0.0,0.0,90,0.00,,---,0.00,VWS V14.00,2013-05-13 07:01:00,
2013-05-13 02:06:00,65.5,62.5,30.10,East,96,0.0,0.0,90,0.00,,---,0.00,VWS V14.00,2013-05-13 07:06:00,
2013-05-13 02:11:00,65.4,62.4,30.10,East,96,0.0,0.0,90,0.00,,---,0.00,VWS V14.00,2013-05-13 07:11:00,
2013-05-13 02:16:00,65.2,62.2,30.10,East,96,0.0,0.0,90,0.00,,---,0.00,VWS V14.00,2013-05-13 07:16:00,
2013-05-13 02:21:00,65.1,62.1,30.10,East,96,0.0,0.0,90,0.00,,---,0.00,VWS V14.00,2013-05-13 07:21:00,
2013-05-13 02:26:00,65.1,62.1,30.10,East,96,0.0,0.0,90,0.00,,---,0.00,VWS V14.00,2013-05-13 07:26:00,
2013-05-13 02:31:00,65.1,62.1,30.10,East,96,0.0,0.0,90,0.00,,---,0.00,VWS V14.00,2013-05-13 07:31:00,
2013-05-13 02:36:00,65.1,62.4,30.10,East,82,0.0,0.0,91,0.00,,---,0.00,VWS V14.00,2013-05-13 07:36:00,
2013-05-13 02:41:00,65.2,62.5,30.10,East,82,0.0,0.0,91,0.00,,---,0.00,VWS V14.00,2013-05-13 07:41:00,
2013-05-13 02:46:00,65.2,62.5,30.10,ENE,78,0.0,0.0,91,0.00,,---,0.00,VWS V14.00,2013-05-13 07:46:00,
2013-05-13 02:51:00,65.2,62.5,30.10,ENE,78,0.0,0.0,91,0.00,,---,0.00,VWS V14.00,2013-05-13 07:51:00,
2013-05-13 02:56:00,65.2,62.5,30.10,ENE,78,0.0,0.0,91,0.00,,---,0.00,VWS V14.00,2013-05-13 07:56:00,
2013-05-13 03:00:00,65.3,62.6,30.10,ENE,78,0.0,0.0,91,0.00,,---,0.00,VWS V14.00,2013-05-13 08:00:00,
2013-05-13 03:05:00,65.3,62.6,30.10,ENE,78,0.0,0.0,91,0.00,,---,0.00,VWS V14.00,2013-05-13 08:05:00,
2013-05-13 03:10:00,65.3,62.6,30.10,ENE,78,0.0,0.0,91,0.00,,---,0.00,VWS V14.00,2013-05-13 08:10:00,
2013-05-13 03:15:00,65.3,62.6,30.10,NE,42,0.0,0.0,91,0.00,,---,0.00,VWS V14.00,2013-05-13 08:15:00,
2013-05-13 03:20:00,65.4,62.7,30.10,NE,42,0.0,0.0,91,0.00,,---,0.00,VWS V14.00,2013-05-13 08:20:00,
2013-05-13 03:25:00,65.4,62.7,30.10,NE,42,0.0,0.0,91,0.00,,---,0.00,VWS V14.00,2013-05-13 08:25:00,
2013-05-13 03:30:00,65.4,63.0,30.10,NE,42,0.0,0.0,92,0.00,,---,0.00,VWS V14.00,2013-05-13 08:30:00,
2013-05-13 03:35:00,65.5,63.1,30.10,NE,42,0.0,0.0,92,0.00,,---,0.00,VWS V14.00,2013-05-13 08:35:00,
2013-05-13 03:40:00,65.4,63.0,30.10,NE,42,0.0,0.0,92,0.00,,---,0.00,VWS V14.00,2013-05-13 08:40:00,
2013-05-13 03:45:00,65.4,63.0,30.10,NNE,18,0.0,0.0,92,0.00,,---,0.00,VWS V14.00,2013-05-13 08:45:00,
2013-05-13 03:50:00,65.3,62.9,30.10,NNE,18,0.0,0.0,92,0.00,,---,0.00,VWS V14.00,2013-05-13 08:50:00,
2013-05-13 03:55:00,65.2,62.8,30.10,NNE,18,0.0,0.0,92,0.00,,---,0.00,VWS V14.00,2013-05-13 08:55:00,
2013-05-13 04:00:00,65.1,62.7,30.10,NNE,18,0.0,0.0,92,0.00,,---,0.00,VWS V14.00,2013-05-13 09:00:00,
2013-05-13 04:05:00,65.0,62.6,30.10,North,360,0.0,0.0,92,0.00,,---,0.00,VWS V14.00,2013-05-13 09:05:00,
2013-05-13 04:10:00,65.0,62.6,30.10,North,355,0.0,0.0,92,0.00,,---,0.00,VWS V14.00,2013-05-13 09:10:00,
2013-05-13 04:15:00,64.9,62.5,30.10,North,355,0.0,0.0,92,0.00,,---,0.00,VWS V14.00,2013-05-13 09:15:00,
2013-05-13 04:20:00,64.9,62.5,30.11,North,355,0.0,0.0,92,0.00,,---,0.00,VWS V14.00,2013-05-13 09:20:00,
2013-05-13 04:25:00,64.9,62.5,30.11,North,355,0.0,0.0,92,0.00,,---,0.00,VWS V14.00,2013-05-13 09:25:00,
2013-05-13 04:30:00,64.9,62.5,30.11,North,355,0.0,0.0,92,0.00,,---,0.00,VWS V14.00,2013-05-13 09:30:00,
2013-05-13 04:35:00,64.9,62.5,30.10,North,355,0.0,0.0,92,0.00,,---,0.00,VWS V14.00,2013-05-13 09:35:00,
2013-05-13 04:40:00,64.8,62.4,30.10,North,355,0.0,0.0,92,0.00,,---,0.00,VWS V14.00,2013-05-13 09:40:00,
2013-05-13 04:45:00,64.7,62.3,30.11,North,355,0.0,0.0,92,0.00,,---,0.00,VWS V14.00,2013-05-13 09:45:00,
2013-05-13 04:50:00,64.6,62.2,30.11,North,355,0.0,0.0,92,0.00,,---,0.00,VWS V14.00,2013-05-13 09:50:00,
2013-05-13 04:55:00,64.4,62.3,30.11,North,355,0.0,0.0,93,0.00,,---,0.00,VWS V14.00,2013-05-13 09:55:00,
2013-05-13 05:00:00,64.3,61.9,30.11,North,355,0.0,0.0,92,0.00,,---,0.00,VWS V14.00,2013-05-13 10:00:00,
2013-05-13 05:05:00,64.1,61.7,30.11,North,355,0.0,0.0,92,0.00,,---,0.00,VWS V14.00,2013-05-13 10:05:00,
2013-05-13 05:10:00,63.9,61.8,30.11,North,355,0.0,0.0,93,0.00,,---,0.00,VWS V14.00,2013-05-13 10:10:00,
2013-05-13 05:15:00,63.8,61.7,30.11,North,355,0.0,0.0,93,0.00,,---,0.00,VWS V14.00,2013-05-13 10:15:00,
2013-05-13 05:20:00,63.6,61.5,30.11,North,355,0.0,0.0,93,0.00,,---,0.00,VWS V14.00,2013-05-13 10:20:00,
2013-05-13 05:25:00,63.4,61.3,30.11,North,355,0.0,0.0,93,0.00,,---,0.00,VWS V14.00,2013-05-13 10:25:00,
2013-05-13 05:30:00,63.3,61.2,30.11,North,355,0.0,0.0,93,0.00,,---,0.00,VWS V14.00,2013-05-13 10:30:00,
2013-05-13 05:35:00,63.2,61.2,30.11,North,355,0.0,0.0,93,0.00,,---,0.00,VWS V14.00,2013-05-13 10:35:00,
2013-05-13 05:40:00,63.1,61.0,30.11,North,355,0.0,0.0,93,0.00,,---,0.00,VWS V14.00,2013-05-13 10:40:00,
2013-05-13 05:45:00,63.0,61.0,30.11,North,355,0.0,0.0,93,0.00,,---,0.00,VWS V14.00,2013-05-13 10:45:00,
2013-05-13 05:50:00,62.9,60.8,30.12,North,355,0.0,0.0,93,0.00,,---,0.00,VWS V14.00,2013-05-13 10:50:00,
2013-05-13 05:55:00,62.8,60.8,30.12,North,355,0.0,0.0,93,0.00,,---,0.00,VWS V14.00,2013-05-13 10:55:00,
2013-05-13 06:00:00,62.7,60.7,30.12,North,5,0.0,0.0,93,0.00,,---,0.00,VWS V14.00,2013-05-13 11:00:00,
2013-05-13 06:05:00,62.7,60.7,30.12,NNE,16,0.0,0.0,93,0.00,,---,0.00,VWS V14.00,2013-05-13 11:05:00,
2013-05-13 06:10:00,62.6,60.5,30.12,NNE,22,0.0,0.0,93,0.00,,---,0.00,VWS V14.00,2013-05-13 11:10:00,
2013-05-13 06:15:00,62.5,60.5,30.12,NNE,16,0.0,0.0,93,0.00,,---,0.00,VWS V14.00,2013-05-13 11:15:00,
2013-05-13 06:20:00,62.3,60.2,30.13,NNE,19,0.0,0.0,93,0.00,,---,0.00,VWS V14.00,2013-05-13 11:20:00,
2013-05-13 06:25:00,62.2,60.2,30.13,NNE,20,0.0,0.0,93,0.00,,---,0.00,VWS V14.00,2013-05-13 11:25:00,
2013-05-13 06:30:00,62.2,60.5,30.13,NNE,23,0.0,0.0,94,0.00,,---,0.00,VWS V14.00,2013-05-13 11:30:00,
2013-05-13 06:35:00,62.1,60.4,30.13,NNE,25,0.0,0.0,94,0.00,,---,0.00,VWS V14.00,2013-05-13 11:35:00,
2013-05-13 06:40:00,62.0,60.3,30.13,NNE,25,0.0,0.0,94,0.00,,---,0.00,VWS V14.00,2013-05-13 11:40:00,
2013-05-13 06:45:00,61.9,60.2,30.13,NNE,26,0.0,0.0,94,0.00,,---,0.00,VWS V14.00,2013-05-13 11:45:00,
2013-05-13 06:50:00,61.9,60.2,30.13,NNE,28,0.0,0.0,94,0.00,,---,0.00,VWS V14.00,2013-05-13 11:50:00,
2013-05-13 06:55:00,61.8,60.1,30.14,NNE,28,0.0,0.0,94,0.00,,---,0.00,VWS V14.00,2013-05-13 11:55:00,
2013-05-13 07:00:00,61.9,60.2,30.14,NNE,26,0.0,0.0,94,0.00,,---,0.00,VWS V14.00,2013-05-13 12:00:00,
2013-05-13 07:05:00,62.0,60.3,30.14,NNE,28,0.0,0.0,94,0.00,,---,0.00,VWS V14.00,2013-05-13 12:05:00,
2013-05-13 07:10:00,62.0,60.3,30.14,NNE,25,0.0,0.0,94,0.00,,---,0.00,VWS V14.00,2013-05-13 12:10:00,
2013-05-13 07:15:00,62.2,60.5,30.15,NNE,24,0.0,0.0,94,0.00,,---,0.00,VWS V14.00,2013-05-13 12:15:00,
2013-05-13 07:20:00,62.5,60.8,30.15,NNE,19,0.0,0.0,94,0.00,,---,0.00,VWS V14.00,2013-05-13 12:20:00,
2013-05-13 07:25:00,62.8,61.0,30.15,NNE,19,0.0,0.0,94,0.00,,---,0.00,VWS V14.00,2013-05-13 12:25:00,
2013-05-13 07:30:00,63.2,61.5,30.15,NNE,19,0.0,0.0,94,0.00,,---,0.00,VWS V14.00,2013-05-13 12:30:00,
2013-05-13 07:35:00,63.5,61.8,30.15,NNE,19,0.0,0.0,94,0.00,,---,0.00,VWS V14.00,2013-05-13 12:35:00,
2013-05-13 07:40:00,63.7,62.0,30.15,NNE,28,0.0,0.0,94,0.00,,---,0.00,VWS V14.00,2013-05-13 12:40:00,
2013-05-13 07:45:00,64.2,62.4,30.15,NE,34,0.0,0.0,94,0.00,,---,0.00,VWS V14.00,2013-05-13 12:45:00,
2013-05-13 07:50:00,64.6,62.8,30.15,NE,39,0.0,0.0,94,0.00,,---,0.00,VWS V14.00,2013-05-13 12:50:00,
2013-05-13 07:55:00,64.9,63.1,30.16,NE,51,0.0,0.0,94,0.00,,---,0.00,VWS V14.00,2013-05-13 12:55:00,
2013-05-13 08:00:00,65.4,63.3,30.16,NE,47,0.0,0.0,93,0.00,,---,0.00,VWS V14.00,2013-05-13 13:00:00,
2013-05-13 08:05:00,65.4,63.3,30.16,NE,53,6.0,6.0,93,0.00,,---,0.00,VWS V14.00,2013-05-13 13:05:00,
2013-05-13 08:10:00,65.5,63.1,30.16,NE,43,6.0,7.0,92,0.00,,---,0.00,VWS V14.00,2013-05-13 13:10:00,
2013-05-13 08:15:00,65.8,63.4,30.16,NE,44,8.0,10.0,92,0.00,,---,0.00,VWS V14.00,2013-05-13 13:15:00,
2013-05-13 08:20:00,66.1,63.7,30.16,NE,47,6.0,8.0,92,0.00,,---,0.00,VWS V14.00,2013-05-13 13:20:00,
2013-05-13 08:25:00,66.5,64.1,30.17,NE,44,7.0,8.0,92,0.00,,---,0.00,VWS V14.00,2013-05-13 13:25:00,
2013-05-13 08:30:00,66.8,64.4,30.17,NE,52,7.0,7.0,92,0.00,,---,0.00,VWS V14.00,2013-05-13 13:30:00,
2013-05-13 08:35:00,67.2,64.5,30.17,NNE,32,9.0,11.0,91,0.00,,---,0.00,VWS V14.00,2013-05-13 13:35:00,
2013-05-13 08:40:00,67.7,65.0,30.18,NE,38,9.0,11.0,91,0.00,,---,0.00,VWS V14.00,2013-05-13 13:40:00,
2013-05-13 08:45:00,67.9,64.9,30.18,NE,55,12.0,12.0,90,0.00,,---,0.00,VWS V14.00,2013-05-13 13:45:00,
2013-05-13 08:50:00,68.3,65.3,30.18,NE,42,10.0,10.0,90,0.00,,---,0.00,VWS V14.00,2013-05-13 13:50:00,
2013-05-13 08:55:00,68.6,65.2,30.18,NE,47,11.0,11.0,89,0.00,,---,0.00,VWS V14.00,2013-05-13 13:55:00,
2013-05-13 09:00:00,68.9,65.5,30.18,NE,51,11.0,13.0,89,0.00,,---,0.00,VWS V14.00,2013-05-13 14:00:00,
2013-05-13 09:05:00,69.0,65.3,30.18,NNE,17,11.0,14.0,88,0.00,,---,0.00,VWS V14.00,2013-05-13 14:05:00,
2013-05-13 09:10:00,69.5,65.8,30.18,NE,51,11.0,13.0,88,0.00,,---,0.00,VWS V14.00,2013-05-13 14:10:00,
2013-05-13 09:15:00,69.8,66.1,30.18,NE,43,12.0,12.0,88,0.00,,---,0.00,VWS V14.00,2013-05-13 14:15:00,
2013-05-13 09:20:00,70.2,66.5,30.18,NE,36,8.0,11.0,88,0.00,,---,0.00,VWS V14.00,2013-05-13 14:20:00,
2013-05-13 09:25:00,70.6,66.6,30.19,NE,38,8.0,10.0,87,0.00,,---,0.00,VWS V14.00,2013-05-13 14:25:00,
2013-05-13 09:30:00,70.8,66.7,30.19,NE,42,9.0,12.0,87,0.00,,---,0.00,VWS V14.00,2013-05-13 14:30:00,
2013-05-13 09:35:00,71.2,66.8,30.18,ENE,58,8.0,8.0,86,0.00,,---,0.00,VWS V14.00,2013-05-13 14:35:00,
2013-05-13 09:40:00,71.7,67.3,30.19,ENE,59,7.0,11.0,86,0.00,,---,0.00,VWS V14.00,2013-05-13 14:40:00,
2013-05-13 09:45:00,71.7,66.6,30.18,ENE,57,7.0,10.0,84,0.00,,---,0.00,VWS V14.00,2013-05-13 14:45:00,
2013-05-13 09:50:00,72.1,67.0,30.18,ENE,58,10.0,11.0,84,0.00,,---,0.00,VWS V14.00,2013-05-13 14:50:00,
2013-05-13 09:55:00,72.4,67.3,30.18,ENE,59,8.0,14.0,84,0.00,,---,0.00,VWS V14.00,2013-05-13 14:55:00,
2013-05-13 10:00:00,72.6,66.8,30.18,ENE,71,10.0,11.0,82,0.00,,---,0.00,VWS V14.00,2013-05-13 15:00:00,
2013-05-13 10:05:00,72.9,66.7,30.18,ENE,69,10.0,11.0,81,0.00,,---,0.00,VWS V14.00,2013-05-13 15:05:00,
2013-05-13 10:10:00,73.3,67.1,30.18,ENE,57,12.0,14.0,81,0.00,,---,0.00,VWS V14.00,2013-05-13 15:10:00,
2013-05-13 10:15:00,73.8,67.2,30.18,ENE,68,12.0,13.0,80,0.00,,---,0.00,VWS V14.00,2013-05-13 15:15:00,
2013-05-13 10:20:00,74.0,67.1,30.18,ENE,65,10.0,11.0,79,0.00,,---,0.00,VWS V14.00,2013-05-13 15:20:00,
2013-05-13 10:25:00,74.2,67.3,30.19,ENE,76,7.0,10.0,79,0.00,,---,0.00,VWS V14.00,2013-05-13 15:25:00,
2013-05-13 10:30:00,74.7,67.8,30.19,East,84,10.0,12.0,79,0.00,,---,0.00,VWS V14.00,2013-05-13 15:30:00,
2013-05-13 10:35:00,74.8,67.1,30.19,East,90,8.0,8.0,77,0.00,,---,0.00,VWS V14.00,2013-05-13 15:35:00,
2013-05-13 10:40:00,75.1,67.0,30.19,East,95,8.0,11.0,76,0.00,,---,0.00,VWS V14.00,2013-05-13 15:40:00,
2013-05-13 10:45:00,75.1,67.0,30.19,East,100,8.0,8.0,76,0.00,,---,0.00,VWS V14.00,2013-05-13 15:45:00,
2013-05-13 10:50:00,75.7,68.0,30.20,East,89,12.0,15.0,77,0.00,,---,0.00,VWS V14.00,2013-05-13 15:50:00,
2013-05-13 10:55:00,76.0,67.9,30.19,ENE,74,10.0,10.0,76,0.00,,---,0.00,VWS V14.00,2013-05-13 15:55:00,
2013-05-13 11:00:00,76.2,68.5,30.19,East,101,11.0,11.0,77,0.00,,---,0.00,VWS V14.00,2013-05-13 16:00:00,
2013-05-13 11:05:00,76.2,67.3,30.19,ESE,105,8.0,8.0,74,0.00,,---,0.00,VWS V14.00,2013-05-13 16:05:00,
2013-05-13 11:10:00,76.4,67.1,30.19,ENE,69,8.0,10.0,73,0.00,,---,0.00,VWS V14.00,2013-05-13 16:10:00,
2013-05-13 11:15:00,76.8,67.9,30.20,East,79,8.0,11.0,74,0.00,,---,0.00,VWS V14.00,2013-05-13 16:15:00,
2013-05-13 11:20:00,76.9,68.0,30.19,East,98,6.0,8.0,74,0.00,,---,0.00,VWS V14.00,2013-05-13 16:20:00,
2013-05-13 11:25:00,77.0,67.7,30.19,ESE,111,7.0,8.0,73,0.00,,---,0.00,VWS V14.00,2013-05-13 16:25:00,
2013-05-13 11:30:00,76.8,67.1,30.19,ESE,121,5.0,7.0,72,0.00,,---,0.00,VWS V14.00,2013-05-13 16:30:00,
2013-05-13 11:35:00,77.6,67.5,30.19,East,96,7.0,9.0,71,0.00,,---,0.00,VWS V14.00,2013-05-13 16:35:00,
2013-05-13 11:40:00,77.8,67.2,30.20,ESE,114,7.0,7.0,70,0.00,,---,0.00,VWS V14.00,2013-05-13 16:40:00,
2013-05-13 11:45:00,77.3,65.9,30.20,ESE,107,2.0,2.0,68,0.00,,---,0.00,VWS V14.00,2013-05-13 16:45:00,
2013-05-13 11:50:00,77.6,66.6,30.20,ESE,108,11.0,11.0,69,0.00,,---,0.00,VWS V14.00,2013-05-13 16:50:00,
2013-05-13 11:55:00,77.5,66.5,30.20,SE,137,0.0,0.0,69,0.00,,---,0.00,VWS V14.00,2013-05-13 16:55:00,
2013-05-13 12:00:00,78.3,67.7,30.20,ESE,105,8.0,12.0,70,0.00,,---,0.00,VWS V14.00,2013-05-13 17:00:00,
2013-05-13 12:05:00,78.5,67.1,30.19,East,85,5.0,7.0,68,0.00,,---,0.00,VWS V14.00,2013-05-13 17:05:00,
2013-05-13 12:10:00,78.8,66.5,30.19,ESE,112,5.0,6.0,66,0.00,,---,0.00,VWS V14.00,2013-05-13 17:10:00,
2013-05-13 12:15:00,78.8,65.6,30.19,ESE,108,12.0,12.0,64,0.00,,---,0.00,VWS V14.00,2013-05-13 17:15:00,
2013-05-13 12:20:00,78.7,65.1,30.19,ESE,117,2.0,5.0,63,0.00,,---,0.00,VWS V14.00,2013-05-13 17:20:00,
2013-05-13 12:25:00,79.4,68.8,30.19,East,94,11.0,12.0,70,0.00,,---,0.00,VWS V14.00,2013-05-13 17:25:00,
2013-05-13 12:30:00,79.3,66.1,30.19,East,90,12.0,16.0,64,0.00,,---,0.00,VWS V14.00,2013-05-13 17:30:00,
2013-05-13 12:35:00,78.9,67.0,30.19,ESE,110,11.0,13.0,67,0.00,,---,0.00,VWS V14.00,2013-05-13 17:35:00,
2013-05-13 12:40:00,79.4,66.2,30.19,SSE,154,8.0,9.0,64,0.00,,---,0.00,VWS V14.00,2013-05-13 17:40:00,
2013-05-13 12:45:00,79.1,63.1,30.19,ENE,69,7.0,7.0,58,0.00,,---,0.00,VWS V14.00,2013-05-13 17:45:00,
2013-05-13 12:50:00,79.4,63.3,30.19,East,90,11.0,12.0,58,0.00,,---,0.00,VWS V14.00,2013-05-13 17:50:00,
2013-05-13 12:55:00,79.8,64.2,30.19,ENE,69,8.0,10.0,59,0.00,,---,0.00,VWS V14.00,2013-05-13 17:55:00,
2013-05-13 13:00:00,79.9,66.7,30.19,East,84,12.0,13.0,64,0.00,,---,0.00,VWS V14.00,2013-05-13 18:00:00,
2013-05-13 13:05:00,79.6,65.9,30.18,ENE,75,6.0,7.0,63,0.00,,---,0.00,VWS V14.00,2013-05-13 18:05:00,
2013-05-13 13:10:00,79.7,64.6,30.18,ESE,120,9.0,9.0,60,0.00,,---,0.00,VWS V14.00,2013-05-13 18:10:00,
2013-05-13 13:15:00,79.7,63.1,30.18,ESE,110,6.0,6.0,57,0.00,,---,0.00,VWS V14.00,2013-05-13 18:15:00,
2013-05-13 13:20:00,80.2,66.5,30.18,SE,135,7.0,9.0,63,0.00,,---,0.00,VWS V14.00,2013-05-13 18:20:00,
2013-05-13 13:25:00,79.3,66.1,30.18,South,191,6.0,8.0,64,0.00,,---,0.00,VWS V14.00,2013-05-13 18:25:00,
2013-05-13 13:30:00,79.2,67.3,30.18,ESE,122,11.0,12.0,67,0.00,,---,0.00,VWS V14.00,2013-05-13 18:30:00,
2013-05-13 13:35:00,79.6,68.5,30.17,SSE,150,12.0,13.0,69,0.00,,---,0.00,VWS V14.00,2013-05-13 18:35:00,
2013-05-13 13:40:00,79.1,68.1,30.17,SSE,150,17.0,17.0,69,0.00,,---,0.00,VWS V14.00,2013-05-13 18:40:00,
2013-05-13 13:45:00,78.6,67.6,30.17,SE,143,13.0,14.0,69,0.00,,---,0.00,VWS V14.00,2013-05-13 18:45:00,
2013-05-13 13:50:00,79.0,66.7,30.17,East,98,11.0,11.0,66,0.00,,---,0.00,VWS V14.00,2013-05-13 18:50:00,
2013-05-13 13:55:00,79.7,68.2,30.17,SE,130,13.0,13.0,68,0.00,,---,0.00,VWS V14.00,2013-05-13 18:55:00,
2013-05-13 14:00:00,79.6,66.8,30.16,SSE,165,14.0,15.0,65,0.00,,---,0.00,VWS V14.00,2013-05-13 19:00:00,
2013-05-13 14:05:00,79.5,67.2,30.16,SSE,148,13.0,13.0,66,0.00,,---,0.00,VWS V14.00,2013-05-13 19:05:00,
2013-05-13 14:10:00,79.2,66.0,30.16,SE,142,14.0,14.0,64,0.00,,---,0.00,VWS V14.00,2013-05-13 19:10:00,
2013-05-13 14:15:00,79.2,67.3,30.15,SE,130,16.0,17.0,67,0.00,,---,0.00,VWS V14.00,2013-05-13 19:15:00,
2013-05-13 14:20:00,79.2,67.3,30.15,SSE,155,12.0,13.0,67,0.00,,---,0.00,VWS V14.00,2013-05-13 19:20:00,
2013-05-13 14:25:00,79.3,67.4,30.15,SSE,163,13.0,15.0,67,0.00,,---,0.00,VWS V14.00,2013-05-13 19:25:00,
2013-05-13 14:30:00,79.4,67.9,30.15,SE,146,12.0,16.0,68,0.00,,---,0.00,VWS V14.00,2013-05-13 19:30:00,
2013-05-13 14:35:00,79.2,66.4,30.14,SSE,152,12.0,16.0,65,0.00,,---,0.00,VWS V14.00,2013-05-13 19:35:00,
2013-05-13 14:40:00,79.4,66.2,30.14,SE,130,13.0,15.0,64,0.00,,---,0.00,VWS V14.00,2013-05-13 19:40:00,
2013-05-13 14:45:00,79.6,65.9,30.14,SSE,150,12.0,15.0,63,0.00,,---,0.00,VWS V14.00,2013-05-13 19:45:00,
2013-05-13 14:50:00,80.1,67.7,30.14,SE,136,12.0,15.0,66,0.00,,---,0.00,VWS V14.00,2013-05-13 19:50:00,
2013-05-13 14:55:00,80.2,66.9,30.14,South,174,13.0,14.0,64,0.00,,---,0.00,VWS V14.00,2013-05-13 19:55:00,
2013-05-13 15:00:00,80.3,67.0,30.13,East,92,12.0,13.0,64,0.00,,---,0.00,VWS V14.00,2013-05-13 20:00:00,
2013-05-13 15:05:00,80.7,66.0,30.13,SE,127,14.0,18.0,61,0.00,,---,0.00,VWS V14.00,2013-05-13 20:05:00,
2013-05-13 15:10:00,80.5,64.9,30.13,East,86,14.0,14.0,59,0.00,,---,0.00,VWS V14.00,2013-05-13 20:10:00,
2013-05-13 15:15:00,80.3,66.1,30.13,SE,142,12.0,13.0,62,0.00,,---,0.00,VWS V14.00,2013-05-13 20:15:00,
2013-05-13 15:20:00,80.4,65.3,30.13,SE,134,12.0,12.0,60,0.00,,---,0.00,VWS V14.00,2013-05-13 20:20:00,
2013-05-13 15:25:00,80.4,65.3,30.13,ESE,104,22.0,24.0,60,0.00,,---,0.00,VWS V14.00,2013-05-13 20:25:00,
2013-05-13 15:30:00,80.5,66.8,30.13,South,170,12.0,12.0,63,0.00,,---,0.00,VWS V14.00,2013-05-13 20:30:00,
2013-05-13 15:35:00,80.5,66.8,30.13,SSE,152,17.0,18.0,63,0.00,,---,0.00,VWS V14.00,2013-05-13 20:35:00,
2013-05-13 15:40:00,80.4,66.2,30.13,SE,142,13.0,13.0,62,0.00,,---,0.00,VWS V14.00,2013-05-13 20:40:00,
2013-05-13 15:45:00,80.2,64.6,30.13,SSE,153,16.0,16.0,59,0.00,,---,0.00,VWS V14.00,2013-05-13 20:45:00,
2013-05-13 15:50:00,80.2,64.6,30.13,SSE,157,13.0,13.0,59,0.00,,---,0.00,VWS V14.00,2013-05-13 20:50:00,
2013-05-13 15:55:00,80.4,66.2,30.13,SSE,166,14.0,14.0,62,0.00,,---,0.00,VWS V14.00,2013-05-13 20:55:00,
2013-05-13 16:00:00,80.3,65.6,30.13,SSE,160,13.0,15.0,61,0.00,,---,0.00,VWS V14.00,2013-05-13 21:00:00,
2013-05-13 16:05:00,80.5,63.9,30.13,South,170,14.0,14.0,57,0.00,,---,0.00,VWS V14.00,2013-05-13 21:05:00,
2013-05-13 16:10:00,80.2,63.6,30.13,SE,141,11.0,11.0,57,0.00,,---,0.00,VWS V14.00,2013-05-13 21:10:00,
2013-05-13 16:15:00,80.1,63.5,30.13,SE,132,14.0,14.0,57,0.00,,---,0.00,VWS V14.00,2013-05-13 21:15:00,
2013-05-13 16:20:00,80.1,64.0,30.13,SSE,167,13.0,14.0,58,0.00,,---,0.00,VWS V14.00,2013-05-13 21:20:00,
2013-05-13 16:25:00,80.0,63.9,30.13,South,169,11.0,18.0,58,0.00,,---,0.00,VWS V14.00,2013-05-13 21:25:00,
2013-05-13 16:30:00,79.7,64.6,30.13,South,169,14.0,15.0,60,0.00,,---,0.00,VWS V14.00,2013-05-13 21:30:00,
2013-05-13 16:35:00,79.6,66.4,30.13,SSE,157,11.0,13.0,64,0.00,,---,0.00,VWS V14.00,2013-05-13 21:35:00,
2013-05-13 16:40:00,79.4,64.8,30.13,South,179,12.0,12.0,61,0.00,,---,0.00,VWS V14.00,2013-05-13 21:40:00,
2013-05-13 16:45:00,79.4,61.8,30.13,SSE,162,12.0,14.0,55,0.00,,---,0.00,VWS V14.00,2013-05-13 21:45:00,
2013-05-13 16:50:00,79.5,63.0,30.13,SSE,154,13.0,16.0,57,0.00,,---,0.00,VWS V14.00,2013-05-13 21:50:00,
2013-05-13 16:55:00,79.3,61.8,30.13,South,187,10.0,10.0,55,0.00,,---,0.00,VWS V14.00,2013-05-13 21:55:00,
2013-05-13 17:00:00,79.4,61.3,30.13,SE,139,13.0,17.0,54,0.00,,---,0.00,VWS V14.00,2013-05-13 22:00:00,
2013-05-13 17:05:00,79.4,59.7,30.13,SSE,159,13.0,17.0,51,0.00,,---,0.00,VWS V14.00,2013-05-13 22:05:00,
2013-05-13 17:10:00,79.2,59.5,30.13,SE,140,12.0,15.0,51,0.00,,---,0.00,VWS V14.00,2013-05-13 22:10:00,
2013-05-13 17:15:00,79.0,57.1,30.13,South,184,13.0,16.0,47,0.00,,---,0.00,VWS V14.00,2013-05-13 22:15:00,
2013-05-13 17:20:00,78.7,61.7,30.13,SSE,154,11.0,15.0,56,0.00,,---,0.00,VWS V14.00,2013-05-13 22:20:00,
2013-05-13 17:25:00,78.0,60.0,30.13,SE,133,14.0,17.0,54,0.00,,---,0.00,VWS V14.00,2013-05-13 22:25:00,
2013-05-13 17:30:00,77.7,60.3,30.13,SSE,159,13.0,13.0,55,0.00,,---,0.00,VWS V14.00,2013-05-13 22:30:00,
2013-05-13 17:35:00,77.5,62.5,30.13,SSE,161,12.0,16.0,60,0.00,,---,0.00,VWS V14.00,2013-05-13 22:35:00,
2013-05-13 17:40:00,77.5,62.1,30.13,SE,135,12.0,17.0,59,0.00,,---,0.00,VWS V14.00,2013-05-13 22:40:00,
2013-05-13 17:45:00,77.6,62.6,30.13,SSE,151,13.0,17.0,60,0.00,,---,0.00,VWS V14.00,2013-05-13 22:45:00,
2013-05-13 17:50:00,77.5,62.5,30.13,SE,127,14.0,17.0,60,0.00,,---,0.00,VWS V14.00,2013-05-13 22:50:00,
2013-05-13 17:55:00,77.2,64.1,30.12,SE,141,14.0,16.0,64,0.00,,---,0.00,VWS V14.00,2013-05-13 22:55:00,
2013-05-13 18:00:00,77.3,64.6,30.12,SSE,153,15.0,15.0,65,0.00,,---,0.00,VWS V14.00,2013-05-13 23:00:00,
2013-05-13 18:05:00,77.1,63.5,30.12,SSE,150,13.0,15.0,63,0.00,,---,0.00,VWS V14.00,2013-05-13 23:05:00,
2013-05-13 18:10:00,77.0,63.9,30.12,SE,131,13.0,14.0,64,0.00,,---,0.00,VWS V14.00,2013-05-13 23:10:00,
2013-05-13 18:15:00,76.8,62.8,30.12,ESE,120,12.0,13.0,62,0.00,,---,0.00,VWS V14.00,2013-05-13 23:15:00,
2013-05-13 18:20:00,76.7,63.6,30.12,SSE,149,13.0,15.0,64,0.00,,---,0.00,VWS V14.00,2013-05-13 23:20:00,
2013-05-13 18:25:00,76.6,64.0,30.11,SE,139,14.0,15.0,65,0.00,,---,0.00,VWS V14.00,2013-05-13 23:25:00,
2013-05-13 18:30:00,76.2,63.6,30.11,SE,135,17.0,17.0,65,0.00,,---,0.00,VWS V14.00,2013-05-13 23:30:00,
2013-05-13 18:35:00,75.9,63.7,30.11,SE,139,12.0,13.0,66,0.00,,---,0.00,VWS V14.00,2013-05-13 23:35:00,
2013-05-13 18:40:00,75.7,64.0,30.11,SE,138,11.0,14.0,67,0.00,,---,0.00,VWS V14.00,2013-05-13 23:40:00,
2013-05-13 18:45:00,75.6,63.9,30.11,SE,127,11.0,15.0,67,0.00,,---,0.00,VWS V14.00,2013-05-13 23:45:00,
2013-05-13 18:50:00,75.4,64.5,30.11,SE,145,12.0,12.0,69,0.00,,---,0.00,VWS V14.00,2013-05-13 23:50:00,
2013-05-13 18:55:00,75.3,64.8,30.11,SE,132,12.0,14.0,70,0.00,,---,0.00,VWS V14.00,2013-05-13 23:55:00,
2013-05-13 19:00:00,75.2,65.6,30.11,SE,125,12.0,12.0,72,0.00,,---,0.00,VWS V14.00,2013-05-14 00:00:00,
2013-05-13 19:05:00,75.0,65.4,30.11,ESE,119,9.0,12.0,72,0.00,,---,0.00,VWS V14.00,2013-05-14 00:05:00,
2013-05-13 19:10:00,74.6,64.6,30.11,SE,142,10.0,12.0,71,0.00,,---,0.00,VWS V14.00,2013-05-14 00:10:00,
2013-05-13 19:15:00,74.6,65.4,30.11,SE,143,13.0,14.0,73,0.00,,---,0.00,VWS V14.00,2013-05-14 00:15:00,
2013-05-13 19:20:00,74.3,65.1,30.11,ESE,119,12.0,12.0,73,0.00,,---,0.00,VWS V14.00,2013-05-14 00:20:00,
2013-05-13 19:25:00,74.1,64.9,30.11,SE,136,8.0,14.0,73,0.00,,---,0.00,VWS V14.00,2013-05-14 00:25:00,
2013-05-13 19:30:00,74.1,64.9,30.11,ESE,120,9.0,12.0,73,0.00,,---,0.00,VWS V14.00,2013-05-14 00:30:00,
2013-05-13 19:35:00,74.0,65.2,30.11,ESE,122,9.0,12.0,74,0.00,,---,0.00,VWS V14.00,2013-05-14 00:35:00,
2013-05-13 19:40:00,74.0,65.2,30.11,SE,143,11.0,13.0,74,0.00,,---,0.00,VWS V14.00,2013-05-14 00:40:00,
2013-05-13 19:45:00,73.7,64.9,30.12,SE,135,9.0,13.0,74,0.00,,---,0.00,VWS V14.00,2013-05-14 00:45:00,
2013-05-13 19:50:00,73.9,65.5,30.12,ESE,123,12.0,12.0,75,0.00,,---,0.00,VWS V14.00,2013-05-14 00:50:00,
2013-05-13 19:55:00,73.8,65.8,30.11,ESE,121,11.0,11.0,76,0.00,,---,0.00,VWS V14.00,2013-05-14 00:55:00,
2013-05-13 20:00:00,73.5,65.5,30.11,ESE,119,13.0,14.0,76,0.00,,---,0.00,VWS V14.00,2013-05-14 01:00:00,
2013-05-13 20:05:00,73.4,65.4,30.11,SE,131,9.0,12.0,76,0.00,,---,0.00,VWS V14.00,2013-05-14 01:05:00,
2013-05-13 20:10:00,73.4,65.8,30.11,SE,129,9.0,12.0,77,0.00,,---,0.00,VWS V14.00,2013-05-14 01:10:00,
2013-05-13 20:15:00,73.4,65.8,30.11,SE,126,11.0,12.0,77,0.00,,---,0.00,VWS V14.00,2013-05-14 01:15:00,
2013-05-13 20:20:00,73.2,65.6,30.11,ESE,123,9.0,11.0,77,0.00,,---,0.00,VWS V14.00,2013-05-14 01:20:00,
2013-05-13 20:25:00,73.0,65.7,30.11,ESE,121,9.0,11.0,78,0.00,,---,0.00,VWS V14.00,2013-05-14 01:25:00,
2013-05-13 20:30:00,72.9,65.7,30.11,ESE,116,9.0,11.0,78,0.00,,---,0.00,VWS V14.00,2013-05-14 01:30:00,
2013-05-13 20:35:00,72.8,65.9,30.11,ESE,119,11.0,12.0,79,0.00,,---,0.00,VWS V14.00,2013-05-14 01:35:00,
2013-05-13 20:40:00,72.6,65.7,30.11,ESE,123,9.0,11.0,79,0.00,,---,0.00,VWS V14.00,2013-05-14 01:40:00,
2013-05-13 20:45:00,72.6,66.1,30.11,ESE,112,9.0,9.0,80,0.00,,---,0.00,VWS V14.00,2013-05-14 01:45:00,
2013-05-13 20:50:00,72.4,65.9,30.11,ESE,123,6.0,11.0,80,0.00,,---,0.00,VWS V14.00,2013-05-14 01:50:00,
2013-05-13 20:55:00,72.4,65.9,30.12,ESE,118,7.0,8.0,80,0.00,,---,0.00,VWS V14.00,2013-05-14 01:55:00,
2013-05-13 21:00:00,72.3,65.8,30.12,ESE,121,7.0,11.0,80,0.00,,---,0.00,VWS V14.00,2013-05-14 02:00:00,
2013-05-13 21:05:00,72.3,65.8,30.12,ESE,110,8.0,9.0,80,0.00,,---,0.00,VWS V14.00,2013-05-14 02:05:00,
2013-05-13 21:10:00,72.3,65.8,30.12,ESE,119,8.0,9.0,80,0.00,,---,0.00,VWS V14.00,2013-05-14 02:10:00,
2013-05-13 21:15:00,72.1,65.9,30.13,SE,124,8.0,8.0,81,0.00,,---,0.00,VWS V14.00,2013-05-14 02:15:00,
2013-05-13 21:20:00,72.0,65.9,30.13,ESE,123,7.0,8.0,81,0.00,,---,0.00,VWS V14.00,2013-05-14 02:20:00,
2013-05-13 21:25:00,71.9,65.8,30.13,ESE,115,7.0,8.0,81,0.00,,---,0.00,VWS V14.00,2013-05-14 02:25:00,
2013-05-13 21:30:00,71.8,65.7,30.13,ESE,117,8.0,9.0,81,0.00,,---,0.00,VWS V14.00,2013-05-14 02:30:00,
2013-05-13 21:35:00,71.7,65.9,30.13,ESE,119,6.0,7.0,82,0.00,,---,0.00,VWS V14.00,2013-05-14 02:35:00,
2013-05-13 21:39:00,71.7,65.9,30.13,ESE,115,8.0,9.0,82,0.00,,---,0.00,VWS V14.00,2013-05-14 02:39:00,
2013-05-13 21:45:00,71.7,65.9,30.13,ESE,109,6.0,7.0,82,0.00,,---,0.00,VWS V14.00,2013-05-14 02:45:00,
2013-05-13 21:50:00,71.6,65.8,30.12,ESE,111,5.0,7.0,82,0.00,,---,0.00,VWS V14.00,2013-05-14 02:50:00,
2013-05-13 21:55:00,71.3,65.5,30.13,ESE,113,7.0,7.0,82,0.00,,---,0.00,VWS V14.00,2013-05-14 02:55:00,
2013-05-13 22:00:00,71.3,65.5,30.13,ESE,119,6.0,7.0,82,0.00,,---,0.00,VWS V14.00,2013-05-14 03:00:00,
2013-05-13 22:04:00,71.2,65.8,30.13,ESE,117,4.0,7.0,83,0.00,,---,0.00,VWS V14.00,2013-05-14 03:04:00,
2013-05-13 22:09:00,71.2,65.8,30.14,ESE,110,5.0,6.0,83,0.00,,---,0.00,VWS V14.00,2013-05-14 03:09:00,
2013-05-13 22:14:00,71.1,65.3,30.14,ESE,120,5.0,6.0,82,0.00,,---,0.00,VWS V14.00,2013-05-14 03:14:00,
2013-05-13 22:19:00,71.1,65.3,30.14,SE,128,4.0,5.0,82,0.00,,---,0.00,VWS V14.00,2013-05-14 03:19:00,
2013-05-13 22:24:00,70.9,65.1,30.14,SE,129,4.0,5.0,82,0.00,,---,0.00,VWS V14.00,2013-05-14 03:24:00,
2013-05-13 22:29:00,70.7,64.9,30.14,SE,132,4.0,5.0,82,0.00,,---,0.00,VWS V14.00,2013-05-14 03:29:00,
2013-05-13 22:34:00,70.6,64.8,30.15,SE,128,5.0,5.0,82,0.00,,---,0.00,VWS V14.00,2013-05-14 03:34:00,
2013-05-13 22:39:00,70.6,64.8,30.15,ESE,117,5.0,5.0,82,0.00,,---,0.00,VWS V14.00,2013-05-14 03:39:00,
2013-05-13 22:44:00,70.6,64.8,30.15,SE,126,4.0,5.0,82,0.00,,---,0.00,VWS V14.00,2013-05-14 03:44:00,
2013-05-13 22:49:00,70.6,65.2,30.15,SE,133,4.0,6.0,83,0.00,,---,0.00,VWS V14.00,2013-05-14 03:49:00,
2013-05-13 22:54:00,70.7,65.3,30.15,SE,145,6.0,8.0,83,0.00,,---,0.00,VWS V14.00,2013-05-14 03:54:00,
2013-05-13 22:59:00,70.8,65.4,30.15,SE,142,7.0,7.0,83,0.00,,---,0.00,VWS V14.00,2013-05-14 03:59:00,
2013-05-13 23:01:00,70.8,65.4,30.16,SE,140,5.0,6.0,83,0.00,,---,0.00,VWS V14.00,2013-05-14 04:01:00,
2013-05-13 23:06:00,70.7,65.6,30.16,SE,134,5.0,7.0,84,0.00,,---,0.00,VWS V14.00,2013-05-14 04:06:00,
2013-05-13 23:11:00,70.8,65.7,30.15,SE,144,7.0,10.0,84,0.00,,---,0.00,VWS V14.00,2013-05-14 04:11:00,
2013-05-13 23:16:00,70.9,65.8,30.15,SSE,148,6.0,7.0,84,0.00,,---,0.00,VWS V14.00,2013-05-14 04:16:00,
2013-05-13 23:21:00,70.8,65.7,30.16,SSE,148,5.0,7.0,84,0.00,,---,0.00,VWS V14.00,2013-05-14 04:21:00,
2013-05-13 23:26:00,70.8,66.1,30.16,SSE,157,5.0,6.0,85,0.00,,---,0.00,VWS V14.00,2013-05-14 04:26:00,
2013-05-13 23:31:00,71.0,66.3,30.16,SSE,148,9.0,10.0,85,0.00,,---,0.00,VWS V14.00,2013-05-14 04:31:00,
2013-05-13 23:36:00,71.1,66.4,30.16,SSE,149,8.0,8.0,85,0.00,,---,0.00,VWS V14.00,2013-05-14 04:36:00,
2013-05-13 23:41:00,71.1,66.4,30.16,SE,128,8.0,9.0,85,0.00,,---,0.00,VWS V14.00,2013-05-14 04:41:00,
2013-05-13 23:46:00,71.2,66.5,30.16,SE,140,7.0,8.0,85,0.00,,---,0.00,VWS V14.00,2013-05-14 04:46:00,
2013-05-13 23:51:00,71.1,66.4,30.16,SE,134,6.0,7.0,85,0.00,,---,0.00,VWS V14.00,2013-05-14 04:51:00,
2013-05-13 23:56:00,71.0,66.3,30.16,SE,140,5.0,6.0,85,0.00,,---,0.00,VWS V14.00,2013-05-14 04:56:00,